Date,TemperatureHighF,TemperatureAvgF,TemperatureLowF,DewpointHighF,DewpointAvgF,DewpointLowF,HumidityHigh,HumidityAvg,HumidityLow,PressureMaxIn,PressureMinIn,WindSpeedMaxMPH,WindSpeedAvgMPH,GustSpeedMaxMPH,PrecipitationSumIn
2014-1-1,30,24,19,22,14,8,86,67,52,30.64,30.49,8,1,12,0.00
2014-1-2,22,14,4,19,11,1,90,88,85,30.52,30.01,7,2,9,0.00
2014-1-3,12,5,-2,4,-1,-8,87,77,62,30.73,29.98,9,3,16,0.00
2014-1-4,23,10,-3,10,1,-8,85,69,44,30.79,30.56,4,1,10,0.00
2014-1-5,40,25,13,39,21,9,99,84,66,30.57,30.00,4,0,9,0.00
2014-1-6,52,39,18,52,33,3,99,82,47,29.98,29.60,11,3,24,0.00
2014-1-7,17,6,1,4,-10,-14,59,49,37,30.60,29.89,21,4,26,0.00
2014-1-8,19,11,4,5,-1,-7,69,59,49,30.79,30.60,7,2,17,0.00
2014-1-9,32,20,16,13,9,4,76,63,44,30.91,30.73,7,2,12,0.00
2014-1-10,33,27,19,32,24,12,97,88,69,30.84,30.46,2,0,5,0.00
2014-1-11,54,46,33,55,46,32,100,99,88,30.45,29.50,8,2,12,0.00
2014-1-12,52,41,35,48,30,26,86,67,56,30.27,29.59,12,4,20,0.00
2014-1-13,44,37,28,37,32,26,92,80,66,30.36,30.11,4,1,11,0.00
2014-1-14,43,42,38,43,40,36,98,92,80,30.12,29.89,7,1,13,0.00
2014-1-15,45,37,30,38,35,30,98,91,75,30.21,30.07,6,1,11,0.00
2014-1-16,39,33,28,37,29,26,94,86,80,30.18,30.09,8,2,10,0.00
2014-1-17,41,30,22,28,25,21,97,82,57,30.21,30.13,5,0,11,0.00
2014-1-18,34,30,24,31,26,19,95,83,72,30.12,29.89,11,1,16,0.00
2014-1-19,33,27,22,24,19,16,81,73,63,30.04,29.85,11,2,18,0.00
2014-1-20,38,34,24,30,23,11,76,65,55,30.14,29.80,7,2,16,0.00
2014-1-21,24,13,7,10,5,-3,86,71,54,30.27,30.13,7,3,17,0.00
2014-1-22,15,5,-2,-2,-5,-10,75,63,47,30.25,30.07,13,4,21,0.00
2014-1-23,17,8,0,2,-1,-5,80,66,46,30.52,30.25,10,2,18,0.00
2014-1-24,19,11,5,1,-2,-4,74,59,39,30.61,30.30,9,3,15,0.00
2014-1-25,21,18,12,19,11,1,93,76,60,30.30,29.67,7,2,13,0.00
2014-1-26,22,16,11,16,7,-1,88,67,43,30.11,29.68,9,2,14,0.00
2014-1-27,39,25,15,28,14,-3,90,64,36,30.32,29.84,12,2,23,0.00
2014-1-28,15,11,6,0,-5,-8,64,49,36,30.61,30.32,10,2,18,0.00
2014-1-29,24,15,8,7,-2,-7,87,50,29,30.54,30.30,7,2,20,0.00
2014-1-30,28,17,7,12,3,-3,79,55,37,30.70,30.44,7,1,13,0.00
2014-1-31,37,29,19,22,14,8,76,55,41,30.47,30.33,4,1,10,0.00
2014-2-1,42,35,28,30,25,21,81,67,50,30.57,30.26,7,1,9,0.00
2014-2-2,48,39,33,38,34,30,97,84,60,30.33,30.13,5,1,13,0.01
2014-2-3,35,28,21,32,24,17,93,85,75,30.56,30.32,5,2,11,0.01
2014-2-4,33,24,15,21,17,12,88,75,56,30.73,30.51,5,1,8,0.00
2014-2-5,29,26,23,27,24,20,95,92,77,30.50,29.90,5,1,7,0.00
2014-2-6,29,21,15,21,13,9,89,74,54,30.53,30.22,6,2,10,0.00
2014-2-7,33,23,16,14,10,7,75,59,41,30.55,30.43,8,2,13,0.00
2014-2-8,28,20,15,8,4,-1,60,48,33,30.57,30.39,7,2,16,0.00
2014-2-9,29,21,13,20,12,4,93,70,49,30.43,30.21,5,1,8,0.00
2014-2-10,29,20,14,18,10,6,85,66,43,30.51,30.21,13,2,16,0.00
2014-2-11,27,16,9,8,4,1,78,62,41,30.73,30.50,9,2,11,0.00
2014-2-12,25,14,6,10,3,-1,78,63,42,30.83,30.58,8,1,9,0.00
2014-2-13,29,23,17,28,22,10,96,93,74,30.57,29.31,9,2,18,0.00
2014-2-14,32,30,28,31,29,27,98,97,96,30.00,29.25,9,4,25,0.00
2014-2-15,31,28,24,30,28,23,98,97,95,30.02,29.87,8,2,13,0.00
2014-2-16,24,20,17,24,19,16,97,94,92,30.33,29.96,13,3,19,0.00
2014-2-17,28,18,10,26,16,8,95,91,84,30.64,30.34,7,1,11,0.00
2014-2-18,31,24,17,30,22,14,97,94,87,30.59,30.20,8,1,11,0.00
2014-2-19,35,28,22,35,27,21,98,97,95,30.35,29.95,8,1,16,0.00
2014-2-20,46,36,31,34,31,28,96,82,58,30.49,30.25,7,1,18,0.00
2014-2-21,43,37,33,42,36,32,99,96,82,30.29,29.91,11,1,15,0.00
2014-2-22,52,43,35,32,26,21,87,54,30,30.26,30.15,16,2,22,0.00
2014-2-23,48,41,34,30,28,24,71,60,46,30.25,30.04,5,1,10,0.00
2014-2-24,42,29,20,30,14,8,73,55,39,30.31,30.04,8,3,22,0.00
2014-2-25,29,22,16,15,10,6,67,59,50,30.32,30.17,8,2,15,0.00
2014-2-26,29,18,10,17,5,-5,84,59,34,30.22,30.09,8,2,16,0.01
2014-2-27,29,16,7,14,0,-12,75,50,33,30.32,29.86,13,3,24,0.00
2014-2-28,24,12,3,0,-5,-11,60,49,33,30.68,30.33,10,2,12,0.00
2014-3-1,34,22,9,18,8,-2,67,56,46,30.68,30.38,6,1,12,0.00
2014-3-2,36,30,23,23,19,13,71,63,59,30.37,30.23,8,2,11,0.00
2014-3-3,23,16,8,14,3,-3,69,56,44,30.59,30.27,8,2,14,0.00
2014-3-4,27,16,4,13,4,-4,76,59,42,30.68,30.50,5,1,7,0.00
2014-3-5,30,24,16,14,11,4,74,59,46,30.74,30.47,6,2,15,0.00
2014-3-6,30,17,7,5,2,-2,69,52,29,30.89,30.74,7,2,10,0.00
2014-3-7,39,27,14,28,17,5,83,67,54,30.75,30.18,3,0,8,0.00
2014-3-8,52,40,27,31,28,25,93,65,43,30.18,30.00,7,2,13,0.00
2014-3-9,40,34,27,28,19,11,80,54,37,30.23,30.10,10,2,18,0.00
2014-3-10,48,38,30,31,26,15,77,62,49,30.14,29.81,5,1,10,0.00
2014-3-11,60,48,34,37,32,27,86,57,29,29.92,29.75,13,2,15,0.00
2014-3-12,48,40,24,39,32,22,96,75,54,29.91,29.25,11,1,22,0.20
2014-3-13,26,19,13,22,6,-2,93,58,31,30.30,29.41,14,6,25,0.20
2014-3-14,41,26,15,28,12,1,78,56,39,30.45,30.14,10,2,19,0.00
2014-3-15,53,43,34,34,28,23,80,58,33,30.21,29.97,10,2,20,0.00
2014-3-16,36,29,23,22,10,4,61,46,31,30.43,30.21,9,3,18,0.00
2014-3-17,35,23,15,8,3,-2,60,45,23,30.39,30.29,8,2,13,0.00
2014-3-18,46,29,14,17,7,2,69,44,17,30.54,30.39,4,1,9,0.00
2014-3-19,42,32,24,34,28,18,97,82,60,30.56,30.11,7,1,11,0.65
2014-3-20,50,41,34,40,31,24,98,71,42,30.09,29.93,11,2,21,0.78
2014-3-21,47,38,31,25,21,19,71,51,35,30.28,30.09,10,3,20,0.00
2014-3-22,59,41,28,38,27,20,84,61,32,30.28,29.97,10,2,21,0.00
2014-3-23,37,33,22,25,17,6,69,52,35,30.36,30.19,10,3,18,0.00
2014-3-24,33,24,16,9,6,4,66,49,32,30.46,30.33,9,2,14,0.00
2014-3-25,38,28,15,18,12,6,74,53,35,30.41,30.11,5,1,13,0.00
2014-3-26,34,28,20,18,9,0,66,47,28,30.43,29.99,15,5,28,0.00
2014-3-27,42,30,17,25,12,6,70,49,27,30.65,30.43,10,2,13,0.00
2014-3-28,50,40,32,48,35,20,98,83,52,30.46,30.20,5,1,9,0.06
2014-3-29,54,45,39,49,42,38,97,90,78,30.44,29.96,6,1,10,1.07
2014-3-30,42,40,35,42,39,34,98,96,94,29.94,29.77,15,4,20,0.04
2014-3-31,54,40,33,37,32,27,94,76,50,30.30,29.93,10,5,22,0.08
2014-4-1,60,45,33,35,30,26,77,58,36,30.36,30.20,9,2,15,0.00
2014-4-2,58,43,34,41,37,31,95,79,52,30.35,30.24,7,1,11,0.00
2014-4-3,64,49,35,38,28,16,92,48,16,30.37,30.23,6,2,11,0.00
2014-4-4,44,40,35,37,33,29,96,77,57,30.30,30.00,9,2,20,0.07
2014-4-5,49,41,36,40,31,22,98,70,47,30.26,29.96,15,4,28,0.09
2014-4-6,62,44,30,26,22,18,72,46,19,30.42,30.26,10,2,17,0.00
2014-4-7,52,43,37,45,32,21,97,66,31,30.43,29.94,6,1,12,0.17
2014-4-8,64,51,44,54,44,34,99,79,48,29.93,29.58,12,2,22,0.36
2014-4-9,60,47,37,37,28,15,84,52,29,30.25,29.82,9,3,25,0.00
2014-4-10,62,47,32,38,26,17,63,45,30,30.41,30.22,8,2,16,0.00
2014-4-11,66,56,46,53,42,34,95,63,43,30.25,30.14,11,2,16,0.15
2014-4-12,72,56,43,45,40,33,97,63,24,30.45,30.22,8,1,14,0.16
2014-4-13,78,60,46,56,47,35,85,64,46,30.41,30.16,10,2,13,0.00
2014-4-14,76,65,57,58,55,53,93,71,48,30.20,30.02,15,3,17,0.00
2014-4-15,60,53,31,59,51,31,98,95,83,30.10,29.70,18,4,22,1.68
2014-4-16,47,35,25,30,22,16,97,62,30,30.82,30.11,8,3,14,1.89
2014-4-17,53,39,27,29,21,15,81,51,28,30.97,30.82,6,1,13,0.00
2014-4-18,48,38,28,34,29,25,93,70,45,30.83,30.48,5,1,9,0.00
2014-4-19,66,52,37,37,30,23,82,48,20,30.59,30.43,12,3,16,0.00
2014-4-20,61,49,37,32,27,22,70,45,25,30.70,30.54,5,1,11,0.00
2014-4-21,70,52,35,39,28,18,77,47,14,30.53,30.08,6,1,12,0.00
2014-4-22,71,55,42,55,46,39,92,75,41,30.08,29.70,7,1,13,0.04
2014-4-23,57,49,43,51,39,27,92,70,51,30.02,29.69,13,4,23,0.09
2014-4-24,62,48,37,30,20,12,71,36,16,30.24,30.02,21,4,22,0.00
2014-4-25,65,50,36,40,24,16,90,39,17,30.27,29.99,6,2,17,0.05
2014-4-26,66,50,41,48,42,38,98,77,41,30.08,29.91,6,1,12,0.01
2014-4-27,55,48,42,39,36,34,78,64,48,30.35,30.08,11,3,15,0.01
2014-4-28,65,52,39,38,35,31,84,56,30,30.35,30.23,9,3,15,0.00
2014-4-29,50,45,40,40,38,37,93,78,63,30.65,30.35,7,2,14,0.10
2014-4-30,47,42,38,47,41,36,97,94,88,30.65,30.23,13,2,19,0.83
2014-5-1,78,61,48,60,53,47,99,80,36,30.22,29.87,7,2,13,0.09
2014-5-2,65,57,47,50,40,35,89,58,35,30.05,29.92,9,2,15,0.10
2014-5-3,68,57,47,50,41,36,88,58,33,30.08,29.93,8,1,14,0.04
2014-5-4,64,56,49,47,36,25,81,52,25,29.98,29.81,14,4,23,0.11
2014-5-5,69,56,46,38,35,29,71,48,25,30.10,29.98,9,3,19,0.00
2014-5-6,64,55,46,37,32,25,70,45,27,30.29,30.09,7,2,17,0.00
2014-5-7,71,56,41,38,31,26,66,42,21,30.46,30.30,6,1,10,0.00
2014-5-8,60,54,48,55,50,38,97,87,63,30.39,30.30,3,0,5,0.20
2014-5-9,59,56,53,59,56,52,99,98,96,30.42,30.22,4,1,9,0.03
2014-5-10,82,67,58,68,61,57,100,82,47,30.21,29.98,7,1,13,0.05
2014-5-11,81,69,58,59,44,33,89,45,19,30.26,30.05,7,2,16,0.06
2014-5-12,86,70,56,60,49,35,71,49,24,30.32,30.21,5,1,13,0.00
2014-5-13,73,65,54,59,48,40,87,56,35,30.47,30.21,7,2,11,0.00
2014-5-14,74,59,46,60,50,43,94,73,50,30.50,30.41,10,2,11,0.00
2014-5-15,67,62,58,67,62,56,100,98,95,30.46,30.28,5,1,11,0.24
2014-5-16,68,65,55,66,64,55,100,98,92,30.27,30.00,8,3,20,2.04
2014-5-17,70,58,49,54,46,39,99,70,36,30.32,30.02,10,2,14,2.10
2014-5-18,68,55,44,42,39,32,83,56,36,30.41,30.32,7,1,10,0.00
2014-5-19,71,57,41,48,38,31,80,52,28,30.42,30.27,5,1,12,0.01
2014-5-20,82,64,50,46,42,36,76,48,20,30.34,30.16,6,1,14,0.01
2014-5-21,78,65,57,59,50,40,95,62,34,30.19,30.08,6,1,12,0.01
2014-5-22,61,57,55,60,57,54,99,97,91,30.08,30.00,3,1,7,1.15
2014-5-23,68,59,56,62,57,54,100,94,69,30.15,30.05,3,0,5,0.15
2014-5-24,71,59,54,61,55,53,98,87,59,30.28,30.13,4,0,6,0.03
2014-5-25,84,65,49,56,52,48,100,67,30,30.31,30.21,6,1,10,0.04
2014-5-26,88,73,58,56,52,47,78,50,31,30.25,30.07,10,2,16,0.00
2014-5-27,89,77,68,65,58,52,73,53,34,30.08,29.92,7,2,14,0.00
2014-5-28,71,56,49,64,53,45,95,88,74,30.39,29.97,4,1,7,0.01
2014-5-29,71,56,41,48,44,40,97,68,41,30.44,30.33,7,1,10,0.00
2014-5-30,82,63,50,56,50,45,95,67,34,30.36,30.19,5,1,8,0.00
2014-5-31,74,61,48,56,50,48,97,70,47,30.49,30.29,5,1,11,0.01
2014-6-1,80,64,49,51,45,36,94,55,23,30.57,30.43,6,1,8,0.00
2014-6-2,86,69,53,61,53,41,82,59,40,30.46,30.20,5,1,12,0.00
2014-6-3,90,70,61,70,60,-100,99,78,48,30.21,30.00,8,-10,10,0.06
2014-6-4,85,70,60,66,61,56,100,77,46,30.05,29.93,4,0,9,0.14
2014-6-5,79,63,58,64,53,-100,98,79,57,29.99,29.85,6,-20,12,0.03
2014-6-6,79,64,54,56,52,48,85,66,42,30.15,29.98,4,1,11,0.00
2014-6-7,86,69,53,62,56,51,94,66,38,30.21,30.11,6,1,8,0.00
2014-6-8,89,72,56,65,58,54,94,65,34,30.16,30.04,4,0,8,0.00
2014-6-9,65,62,60,63,61,56,99,94,78,30.18,30.08,2,0,6,0.03
2014-6-10,77,68,62,70,65,61,99,91,76,30.19,30.13,2,0,4,0.03
2014-6-11,67,62,59,66,59,53,99,89,76,30.33,30.19,10,0,10,0.13
2014-6-12,67,62,57,66,61,55,99,96,87,30.30,30.14,3,0,7,0.01
2014-6-13,82,68,64,72,66,64,100,95,70,30.14,29.92,4,1,12,0.18
2014-6-14,74,65,55,65,58,49,99,80,53,30.21,29.98,10,1,13,0.19
2014-6-15,83,67,54,61,56,51,92,71,44,30.31,30.21,5,1,8,0.00
2014-6-16,88,70,56,63,58,54,96,69,41,30.37,30.22,7,1,9,0.00
2014-6-17,93,77,61,70,65,58,94,70,39,30.26,30.04,5,1,7,0.00
2014-6-18,90,80,66,70,66,61,84,64,43,30.16,29.98,7,2,17,0.00
2014-6-19,82,70,63,70,64,46,99,82,52,30.20,30.14,2,0,7,0.60
2014-6-20,84,68,54,60,51,46,83,58,29,30.22,30.10,6,1,11,0.00
2014-6-21,81,66,50,58,51,45,89,61,32,30.19,30.08,3,0,7,0.00
2014-6-22,87,68,54,60,54,51,94,65,31,30.22,30.12,3,0,10,0.00
2014-6-23,86,69,56,63,57,52,91,68,37,30.34,30.22,4,1,8,0.00
2014-6-24,83,69,58,64,60,55,96,73,49,30.34,30.20,9,2,11,0.00
2014-6-25,87,74,62,73,67,59,96,81,62,30.21,30.00,8,1,15,0.09
2014-6-26,87,75,69,73,69,63,99,82,57,30.17,29.99,3,0,6,0.45
2014-6-27,89,74,61,68,61,52,98,69,30,30.41,30.17,4,0,7,0.00
2014-6-28,92,73,57,67,60,54,97,69,30,30.47,30.41,3,0,5,0.00
2014-6-29,88,73,59,67,61,57,95,69,40,30.45,30.30,8,1,10,0.00
2014-6-30,86,72,59,69,62,55,90,73,50,30.31,30.13,6,1,9,0.00
2014-7-1,90,76,64,75,70,63,99,81,60,30.15,29.98,5,1,9,0.00
2014-7-2,90,76,70,78,72,69,99,87,65,30.11,30.00,7,1,12,0.88
2014-7-3,92,75,66,78,72,66,100,90,65,30.19,30.05,5,1,10,0.43
2014-7-4,68,65,61,67,64,55,99,94,80,30.20,30.10,4,1,8,0.34
2014-7-5,84,71,58,57,53,48,83,57,33,30.33,30.20,7,2,14,0.00
2014-7-6,86,73,60,62,57,53,81,58,35,30.28,30.09,6,1,13,0.00
2014-7-7,90,76,68,70,66,60,98,73,48,30.10,29.90,5,1,17,0.16
2014-7-8,91,77,65,75,70,64,100,81,52,30.02,29.83,4,1,19,0.33
2014-7-9,88,76,67,71,67,62,98,75,45,30.15,29.93,7,1,10,0.04
2014-7-10,88,73,62,65,62,59,97,71,40,30.34,30.15,3,0,6,0.00
2014-7-11,89,74,63,64,58,53,88,61,32,30.42,30.34,3,0,5,0.00
2014-7-12,89,74,61,68,64,60,97,72,48,30.42,30.31,4,1,10,0.00
2014-7-13,84,73,65,74,68,61,96,85,71,30.31,30.06,6,1,12,0.02
2014-7-14,80,73,68,74,71,68,99,93,78,30.11,30.02,3,0,11,0.92
2014-7-15,82,74,70,76,72,70,99,93,79,30.01,29.91,4,1,7,0.26
2014-7-16,83,70,60,71,64,58,99,82,43,30.09,29.92,3,0,7,2.19
2014-7-17,83,70,60,63,59,55,90,70,44,30.30,30.09,3,0,8,0.00
2014-7-18,87,69,54,61,57,53,99,71,34,30.43,30.31,5,0,9,0.00
2014-7-19,81,69,59,66,60,55,93,76,53,30.45,30.38,3,0,7,0.00
2014-7-20,84,69,57,66,61,56,97,77,49,30.39,30.30,5,0,7,0.02
2014-7-21,91,73,58,69,62,56,97,73,42,30.40,30.32,4,0,6,0.00
2014-7-22,91,76,63,72,68,62,98,78,50,30.36,30.21,5,1,8,0.00
2014-7-23,90,78,70,77,71,67,98,80,62,30.21,29.94,5,1,16,0.33
2014-7-24,82,72,63,69,64,56,99,77,51,30.12,29.99,4,0,7,0.01
2014-7-25,85,69,57,63,58,53,88,69,41,30.24,30.12,3,0,6,0.00
2014-7-26,79,69,58,67,62,57,97,81,57,30.20,30.08,2,0,7,0.00
2014-7-27,86,73,66,75,69,65,99,89,67,30.08,29.84,3,0,7,0.09
2014-7-28,83,71,63,69,65,59,99,84,54,29.87,29.67,9,1,15,0.12
2014-7-29,76,66,58,60,56,52,88,73,46,30.16,29.87,6,1,13,0.00
2014-7-30,83,68,59,60,56,51,89,68,38,30.23,30.16,3,0,8,0.00
2014-7-31,84,68,58,66,60,55,96,77,48,30.34,30.23,4,0,10,0.01
2014-8-1,85,71,62,71,66,62,99,86,60,30.40,30.34,11,0,12,0.00
2014-8-2,81,69,64,65,64,60,99,85,55,30.40,30.29,4,0,6,0.00
2014-8-3,79,69,61,68,64,60,99,86,63,30.33,30.22,5,0,6,0.08
2014-8-4,90,74,62,70,66,62,99,78,48,30.26,30.20,5,0,7,0.00
2014-8-5,93,76,62,70,65,61,99,72,39,30.24,30.09,3,0,7,0.57
2014-8-6,88,70,62,69,64,59,99,84,46,30.12,30.01,3,0,7,0.01
2014-8-7,84,67,56,63,57,52,93,71,39,30.21,30.09,4,0,9,0.01
2014-8-8,86,69,57,63,58,53,90,70,40,30.29,30.21,6,1,9,0.00
2014-8-9,90,72,57,64,59,55,95,68,37,30.33,30.26,2,0,6,0.00
2014-8-10,92,73,59,66,60,55,95,67,33,30.35,30.28,2,0,5,0.00
2014-8-11,88,73,61,67,60,57,90,67,38,30.33,30.27,5,1,12,0.00
2014-8-12,75,69,63,69,66,60,99,91,72,30.29,30.08,7,1,11,0.03
2014-8-13,82,69,63,71,66,61,99,91,65,30.07,29.84,5,1,12,0.97
2014-8-14,79,65,56,61,55,51,96,73,39,30.09,29.96,9,1,17,0.13
2014-8-15,67,60,51,56,53,50,98,80,60,30.18,30.08,4,1,9,0.01
2014-8-16,76,64,53,61,54,51,96,73,41,30.22,30.11,5,1,11,0.00
2014-8-17,84,70,60,65,58,54,85,67,43,30.11,30.01,5,1,11,0.00
2014-8-18,86,66,52,61,56,51,98,73,38,30.11,30.02,5,0,8,0.00
2014-8-19,88,67,52,61,56,51,97,71,35,30.14,30.07,3,0,6,0.00
2014-8-20,87,72,61,69,65,60,99,79,53,30.21,30.13,5,1,7,0.00
2014-8-21,83,68,62,70,65,60,99,88,64,30.25,30.18,3,0,9,0.72
2014-8-22,75,66,63,67,64,62,99,93,69,30.27,30.20,2,0,4,0.10
2014-8-23,77,66,60,65,62,57,100,88,66,30.33,30.25,1,0,5,0.01
2014-8-24,84,66,56,67,61,55,99,85,53,30.37,30.31,4,0,7,0.00
2014-8-25,91,70,57,68,62,57,100,79,39,30.40,30.32,2,0,4,0.00
2014-8-26,92,73,60,69,64,59,98,76,42,30.37,30.25,3,0,5,0.00
2014-8-27,93,74,62,74,67,62,98,80,50,30.26,30.04,5,1,12,0.50
2014-8-28,81,69,58,69,59,52,99,74,40,30.26,30.05,5,1,9,0.03
2014-8-29,82,64,50,61,55,49,98,76,41,30.45,30.27,3,0,4,0.00
2014-8-30,79,66,54,66,59,54,99,81,54,30.48,30.34,6,1,9,0.00
2014-8-31,86,72,68,76,68,63,99,88,70,30.34,30.15,3,0,7,0.60
2014-9-1,91,76,68,76,71,67,100,86,60,30.20,30.10,5,0,7,0.00
2014-9-2,92,79,69,75,71,69,100,80,52,30.12,29.95,5,1,10,0.00
2014-9-3,89,73,63,70,62,57,88,70,36,30.30,29.97,6,1,16,0.00
2014-9-4,88,71,58,66,60,56,94,72,41,30.39,30.29,3,0,9,0.00
2014-9-5,86,74,63,74,68,62,98,84,64,30.36,30.19,6,1,13,0.00
2014-9-6,91,76,61,77,71,59,99,85,55,30.19,29.99,7,1,10,0.22
2014-9-7,83,66,57,63,58,52,98,78,38,30.41,30.13,4,0,9,0.02
2014-9-8,78,64,52,59,55,51,95,76,47,30.54,30.41,4,0,8,0.00
2014-9-9,73,62,52,61,57,51,96,86,66,30.51,30.37,3,0,7,0.00
2014-9-10,80,65,53,64,58,52,98,80,48,30.36,30.21,3,0,4,0.00
2014-9-11,78,69,63,70,65,58,95,88,76,30.20,30.00,5,1,11,0.00
2014-9-12,76,62,53,58,53,49,90,73,45,30.42,30.17,4,1,8,0.00
2014-9-13,62,56,50,59,53,48,98,90,73,30.43,30.30,9,0,10,0.23
2014-9-14,71,55,46,53,48,44,98,80,44,30.50,30.38,3,0,5,0.01
2014-9-15,74,56,44,52,47,43,97,76,42,30.46,30.28,3,0,8,0.00
2014-9-16,72,58,52,59,54,49,98,86,61,30.28,30.17,4,0,7,0.25
2014-9-17,73,57,46,54,48,43,98,76,40,30.27,30.17,4,0,6,0.00
2014-9-18,77,59,46,55,50,45,98,76,41,30.33,30.17,2,0,5,0.00
2014-9-19,68,54,46,51,45,42,94,74,44,30.59,30.34,2,0,6,0.00
2014-9-20,74,60,47,61,55,46,97,84,61,30.56,30.27,5,1,8,0.00
2014-9-21,75,67,61,69,64,60,99,92,78,30.28,29.80,3,0,11,0.02
2014-9-22,70,60,47,62,50,41,93,71,48,30.35,29.82,5,1,16,0.01
2014-9-23,75,56,43,51,45,40,95,69,36,30.64,30.35,5,0,7,0.00
2014-9-24,73,59,50,56,51,47,96,77,47,30.79,30.64,4,0,7,0.00
2014-9-25,66,58,54,57,54,51,92,84,71,30.71,30.45,2,0,5,0.00
2014-9-26,82,64,52,58,54,51,95,73,39,30.46,30.37,5,0,8,0.00
2014-9-27,86,66,54,62,57,52,98,75,42,30.45,30.36,4,0,5,0.00
2014-9-28,87,68,56,66,59,56,99,76,39,30.38,30.21,5,0,7,0.00
2014-9-29,80,67,59,64,60,57,94,80,55,30.20,30.10,2,0,3,0.00
2014-9-30,72,63,55,62,59,54,97,88,68,30.21,30.11,4,0,8,0.00
2014-10-1,63,59,55,60,57,54,98,95,90,30.30,30.20,3,0,5,0.03
2014-10-2,71,60,55,59,57,54,98,89,66,30.37,30.29,3,0,7,0.02
2014-10-3,74,59,48,55,50,46,98,75,44,30.33,30.04,4,1,10,0.00
2014-10-4,62,58,49,62,55,42,98,92,76,30.04,29.69,7,2,18,0.55
2014-10-5,63,50,41,43,37,34,81,64,37,30.20,29.88,8,1,14,0.00
2014-10-6,70,53,40,52,45,37,97,76,42,30.28,30.21,9,1,14,0.00
2014-10-7,73,61,52,60,55,50,97,81,47,30.27,30.08,6,1,12,0.03
2014-10-8,71,63,57,59,51,39,97,68,41,30.13,29.93,8,2,17,0.84
2014-10-9,68,57,47,43,40,37,80,54,37,30.25,30.10,12,1,18,0.00
2014-10-10,62,52,44,44,40,36,85,65,41,30.34,30.25,4,0,7,0.00
2014-10-11,54,48,45,49,46,42,98,92,81,30.39,30.28,1,0,3,0.21
2014-10-12,65,48,38,45,41,38,99,80,41,30.54,30.39,2,0,8,0.01
2014-10-13,59,52,41,57,49,39,98,89,77,30.56,30.45,2,0,6,0.01
2014-10-14,73,65,58,67,62,57,99,91,72,30.46,30.30,6,1,10,0.01
2014-10-15,74,69,65,69,66,63,99,91,79,30.30,30.03,7,1,24,0.29
2014-10-16,68,64,55,68,62,54,99,94,73,30.03,29.85,4,1,10,0.05
2014-10-17,71,61,54,55,53,50,98,78,49,29.92,29.84,10,2,13,0.10
2014-10-18,67,56,51,56,50,44,99,82,57,29.90,29.75,7,1,13,0.06
2014-10-19,53,47,35,46,36,28,84,66,46,30.27,29.90,8,2,14,0.03
2014-10-20,58,45,35,41,35,29,85,69,47,30.32,30.18,9,1,12,0.03
2014-10-21,58,51,46,54,48,41,98,91,78,30.18,30.07,2,0,4,0.03
2014-10-22,51,49,47,51,48,46,98,96,92,30.20,30.00,8,3,20,0.03
2014-10-23,48,47,46,46,46,45,97,96,92,30.02,29.94,9,4,14,0.03
2014-10-24,56,50,43,49,46,43,97,88,73,30.06,29.98,5,1,10,0.02
2014-10-25,66,53,41,50,44,38,98,73,46,30.07,29.77,9,1,15,0.03
2014-10-26,54,50,46,50,40,39,92,70,58,30.02,29.73,7,2,15,0.01
2014-10-27,64,52,45,42,39,36,79,64,40,30.24,30.02,6,1,13,0.01
2014-10-28,68,54,44,52,45,35,89,73,53,30.25,30.11,5,0,9,0.01
2014-10-29,65,55,46,57,51,42,99,88,59,30.15,30.05,8,1,14,0.02
2014-10-30,57,47,41,44,40,36,99,78,52,30.24,30.14,10,1,12,0.00
2014-10-31,54,44,35,42,36,33,93,75,58,30.26,30.12,3,0,8,0.01
2014-11-1,46,41,37,41,37,35,95,87,66,30.12,30.04,6,2,11,0.01
2014-11-2,47,40,37,36,27,20,94,64,44,30.24,30.03,13,5,23,0.01
2014-11-3,61,48,36,34,25,16,73,46,19,30.34,30.22,10,2,17,0.01
2014-11-4,70,57,50,36,29,18,55,36,22,30.36,30.21,8,1,11,0.01
2014-11-5,62,55,48,44,36,28,64,51,31,30.34,30.18,7,1,11,0.00
2014-11-6,49,46,44,46,41,34,98,86,57,30.32,29.79,2,0,4,0.01
2014-11-7,47,42,36,43,36,28,98,79,59,30.12,29.77,13,2,18,0.01
2014-11-8,49,40,32,32,27,25,80,62,40,30.24,30.11,8,1,10,0.01
2014-11-9,56,45,38,36,33,30,79,64,44,30.24,30.10,6,1,11,0.01
2014-11-10,62,47,37,40,34,31,88,64,38,30.39,30.24,3,1,8,0.00
2014-11-11,60,50,42,54,48,39,98,91,78,30.36,30.14,3,0,9,0.00
2014-11-12,62,51,38,57,48,31,99,88,73,30.29,30.09,7,1,13,0.01
2014-11-13,47,37,29,33,29,26,96,76,49,30.33,30.20,5,1,9,0.01
2014-11-14,42,34,30,32,26,17,97,74,44,30.40,30.18,6,1,10,0.01
2014-11-15,40,31,25,23,20,15,88,65,40,30.60,30.40,9,1,13,0.07
2014-11-16,38,33,24,31,25,18,84,73,58,30.62,30.34,3,0,6,0.15
2014-11-17,44,38,34,44,37,31,99,95,78,30.34,29.71,7,1,18,0.11
2014-11-18,41,28,19,34,13,4,81,55,34,30.30,29.80,18,3,21,0.07
2014-11-19,31,24,18,14,8,5,60,52,38,30.50,30.30,9,2,20,0.01
2014-11-20,42,33,25,22,17,10,74,53,38,30.29,30.06,15,2,16,0.04
2014-11-21,34,26,21,15,12,9,71,55,42,30.74,30.25,8,2,18,0.04
2014-11-22,41,31,18,22,15,11,77,55,34,30.74,30.41,8,1,11,0.05
2014-11-23,55,43,35,37,27,22,78,55,39,30.43,30.24,4,1,7,0.07
2014-11-24,67,58,43,62,56,38,99,91,80,30.23,29.74,10,2,21,0.04
2014-11-25,62,52,45,57,36,28,88,55,42,30.36,29.94,15,2,19,0.01
2014-11-26,45,35,30,31,30,29,97,85,54,30.42,30.05,6,1,9,0.01
2014-11-27,33,31,29,31,29,27,96,93,89,30.29,30.07,3,0,5,0.00
2014-11-28,34,26,17,27,20,13,95,78,63,30.50,30.27,8,2,17,0.02
2014-11-29,30,24,16,26,19,12,88,79,63,30.60,30.45,3,0,7,0.01
2014-11-30,43,37,30,36,33,26,88,82,73,30.44,30.30,4,0,8,0.48
2014-12-1,56,44,35,46,38,25,88,80,67,30.68,30.28,5,1,11,0.04
2014-12-2,34,32,27,33,25,18,96,76,63,30.88,30.56,7,1,10,0.07
2014-12-3,41,37,33,41,35,25,99,92,64,30.55,30.18,8,1,17,0.02
2014-12-4,42,34,27,26,23,19,77,63,41,30.77,30.43,9,2,19,0.03
2014-12-5,35,30,23,32,26,20,97,84,67,30.85,30.59,2,0,4,0.32
2014-12-6,40,37,32,40,36,32,99,98,95,30.59,30.35,8,1,15,0.12
2014-12-7,36,30,20,35,19,5,95,65,38,30.89,30.48,12,5,19,0.06
2014-12-8,29,21,13,25,13,1,87,72,48,30.97,30.63,5,1,10,0.06
2014-12-9,37,33,28,35,31,24,98,95,85,30.63,29.90,12,3,22,0.00
2014-12-10,37,33,28,35,31,25,96,93,85,29.91,29.78,9,3,15,0.02
2014-12-11,33,30,28,26,24,22,91,79,68,30.09,29.79,10,2,16,0.01
2014-12-12,36,30,27,26,23,22,83,77,64,30.22,30.09,8,2,15,0.03
2014-12-13,42,33,28,29,27,25,90,79,57,30.21,30.12,7,2,15,0.22
2014-12-14,40,35,30,34,31,27,93,86,76,30.20,30.10,4,1,7,0.14
2014-12-15,44,34,28,34,30,27,95,85,68,30.37,30.20,6,1,8,0.05
2014-12-16,40,35,27,40,34,26,98,95,89,30.35,30.08,4,0,5,0.10
2014-12-17,47,42,37,43,38,31,99,87,74,30.09,30.01,9,2,28,0.03
2014-12-18,38,35,33,31,27,24,79,72,63,30.19,30.07,11,4,21,0.02
2014-12-19,35,32,26,27,24,21,82,72,63,30.43,30.18,7,2,16,0.02
2014-12-20,29,27,26,23,21,20,86,79,73,30.54,30.43,6,1,9,0.02
2014-12-21,32,29,26,29,26,23,94,90,86,30.59,30.52,4,1,5,0.00
2014-12-22,40,34,29,39,32,28,97,93,86,30.59,30.42,3,0,9,0.16
2014-12-23,43,41,39,42,40,38,98,97,95,30.43,30.32,8,0,8,0.07
2014-12-24,53,45,40,53,45,40,100,99,98,30.32,29.73,4,0,6,0.03
2014-12-25,58,48,40,57,39,30,100,72,54,30.29,29.69,15,4,20,0.01
2014-12-26,49,41,37,33,30,29,74,66,50,30.47,30.29,8,2,13,0.02
2014-12-27,53,43,35,37,34,29,85,70,55,30.48,30.26,7,1,12,0.01
2014-12-28,48,43,37,43,37,28,95,78,68,30.28,30.06,9,2,13,0.01
2014-12-29,40,34,26,28,23,19,80,67,48,30.49,30.28,6,2,13,0.01
2014-12-30,30,24,19,19,13,9,81,64,49,30.64,30.49,8,1,15,0.01
2014-12-31,30,23,18,14,10,6,72,60,42,30.58,30.38,7,1,14,0.01
2015-1-1,33,27,20,17,10,5,65,49,38,30.38,30.18,9,2,15,0.00
2015-1-2,38,34,29,23,21,17,76,60,52,30.68,30.21,11,2,18,0.10